CGMPW CYVR-CYVR

Flight info

Callsign CGMPW
Flight time 0h 1m
Altitude 1200
Route VFR FLIGHT AROUND VANCOUVER REGION / PRACTICING LOW ALTITUDE ABOVE WATER /
Aircraft AS50/L-S/LB2

Departure

Time 2026-05-08 03:09
Airport Vancouver International Airport (CYVR)

Arrival

Time 2026-05-08 03:10
Airport Vancouver International Airport (CYVR)
Time Latitude Longitude Altitude Speed Heading
2026-05-08 02:53 49.18859 -123.16518 12 ft 0 kts 12°
2026-05-08 02:57 49.18859 -123.16519 14 ft 0 kts 12°
2026-05-08 02:57 49.18865 -123.16502 57 ft 1 kts
2026-05-08 02:57 49.18876 -123.16482 106 ft 3 kts 113°
2026-05-08 02:57 49.18859 -123.16026 387 ft 80 kts 86°
2026-05-08 02:58 49.18923 -123.15149 144 ft 84 kts 92°
2026-05-08 02:58 49.19154 -123.14422 256 ft 97 kts 30°
2026-05-08 02:58 49.19880 -123.14382 299 ft 115 kts 351°
2026-05-08 02:58 49.20691 -123.14544 332 ft 123 kts 354°
2026-05-08 02:59 49.21544 -123.14649 437 ft 124 kts 355°
2026-05-08 02:59 49.22418 -123.14725 469 ft 125 kts
2026-05-08 02:59 49.23288 -123.14697 484 ft 128 kts 358°
2026-05-08 02:59 49.24183 -123.14857 579 ft 130 kts 349°
2026-05-08 03:00 49.25122 -123.14962 490 ft 144 kts
2026-05-08 03:00 49.25930 -123.14163 554 ft 140 kts 40°
2026-05-08 03:00 49.26714 -123.13124 335 ft 158 kts 50°
2026-05-08 03:00 49.27113 -123.11636 275 ft 140 kts 75°
2026-05-08 03:01 49.27546 -123.10477 234 ft 116 kts 36°
2026-05-08 03:01 49.28289 -123.10170 250 ft 112 kts
2026-05-08 03:01 49.29053 -123.09944 229 ft 113 kts 27°
2026-05-08 03:01 49.29020 -123.09060 275 ft 95 kts 140°
2026-05-08 03:02 49.29245 -123.08242 178 ft 114 kts 25°
2026-05-08 03:02 49.30036 -123.07787 117 ft 120 kts 22°
2026-05-08 03:02 49.30585 -123.07527 130 ft 31 kts 29°
2026-05-08 03:02 49.30656 -123.07473 76 ft 13 kts 25°
2026-05-08 03:03 49.30694 -123.07444 34 ft 1 kts 18°
2026-05-08 03:03 49.30689 -123.07449 96 ft 18 kts 212°
2026-05-08 03:03 49.30596 -123.07981 171 ft 88 kts 308°
2026-05-08 03:03 49.30642 -123.09014 150 ft 110 kts 263°
2026-05-08 03:04 49.30345 -123.10017 257 ft 108 kts 238°
2026-05-08 03:04 49.29857 -123.10976 147 ft 116 kts 230°
2026-05-08 03:04 49.29381 -123.11941 215 ft 113 kts 238°
2026-05-08 03:04 49.29555 -123.12163 168 ft 84 kts 59°
2026-05-08 03:05 49.29931 -123.11590 93 ft 77 kts
2026-05-08 03:05 49.30110 -123.11888 45 ft 24 kts 232°
2026-05-08 03:05 49.30118 -123.12052 123 ft 15 kts 321°
2026-05-08 03:05 49.30395 -123.12346 105 ft 68 kts 320°
2026-05-08 03:06 49.30811 -123.12891 101 ft 86 kts 321°
2026-05-08 03:06 49.31238 -123.13482 147 ft 81 kts 309°
2026-05-08 03:06 49.31483 -123.14225 143 ft 77 kts 291°
2026-05-08 03:06 49.31486 -123.14926 227 ft 61 kts 240°
2026-05-08 03:07 49.31038 -123.15598 262 ft 110 kts 208°
2026-05-08 03:07 49.30240 -123.15906 246 ft 121 kts 187°
2026-05-08 03:07 49.29516 -123.15356 204 ft 134 kts 130°
2026-05-08 03:07 49.28725 -123.14739 106 ft 126 kts 162°
2026-05-08 03:08 49.27989 -123.14111 58 ft 120 kts 149°
2026-05-08 03:08 49.27344 -123.13400 59 ft 109 kts 147°
2026-05-08 03:08 49.26972 -123.12697 117 ft 79 kts 108°
2026-05-08 03:08 49.26857 -123.11681 278 ft 109 kts 95°
2026-05-08 03:09 49.26785 -123.10425 366 ft 126 kts 96°
2026-05-08 03:09 49.26686 -123.09148 628 ft 122 kts 101°
2026-05-08 03:09 49.26569 -123.07831 723 ft 130 kts 95°
2026-05-08 03:09 49.26520 -123.06370 698 ft 138 kts 94°
2026-05-08 03:10 49.26378 -123.04964 640 ft 122 kts 106°
2026-05-08 03:10 49.26238 -123.03842 450 ft 98 kts 103°
2026-05-08 03:10 49.26132 -123.02993 238 ft 52 kts 119°
2026-05-08 03:10 49.26112 -123.02862 137 ft 7 kts 113°
2026-05-08 03:11 49.26089 -123.02816 112 ft 2 kts 105°
2026-05-08 03:11 49.26092 -123.02807 146 ft 2 kts 202°
2026-05-08 03:11 49.26098 -123.02809 329 ft 8 kts 317°
2026-05-08 03:11 49.26127 -123.03385 626 ft 90 kts 251°
2026-05-08 03:12 49.25675 -123.03927 623 ft 106 kts 182°
2026-05-08 03:12 49.24862 -123.03875 470 ft 116 kts 181°
2026-05-08 03:12 49.24089 -123.03673 539 ft 110 kts 154°
2026-05-08 03:12 49.23625 -123.02700 510 ft 112 kts 128°
2026-05-08 03:13 49.23094 -123.02228 652 ft 96 kts 220°
2026-05-08 03:13 49.22555 -123.02503 590 ft 94 kts 148°
2026-05-08 03:13 49.22059 -123.01829 501 ft 95 kts 134°
2026-05-08 03:13 49.21726 -123.01016 510 ft 86 kts 125°
2026-05-08 03:14 49.21502 -123.00081 509 ft 109 kts 109°
2026-05-08 03:14 49.21068 -122.99080 479 ft 123 kts 152°
2026-05-08 03:14 49.20275 -122.98560 162 ft 125 kts 162°
2026-05-08 03:14 49.19502 -122.98121 135 ft 117 kts 159°
2026-05-08 03:15 49.18737 -122.97717 178 ft 114 kts 178°
2026-05-08 03:15 49.18081 -122.98369 190 ft 117 kts 226°
2026-05-08 03:15 49.18054 -122.99612 168 ft 123 kts 285°
2026-05-08 03:15 49.18279 -123.00782 328 ft 109 kts 274°
2026-05-08 03:16 49.18453 -123.02008 325 ft 122 kts 280°
2026-05-08 03:16 49.18522 -123.03338 191 ft 126 kts 267°
2026-05-08 03:16 49.18540 -123.04667 231 ft 127 kts 274°
2026-05-08 03:16 49.18639 -123.06047 154 ft 131 kts 277°
2026-05-08 03:17 49.18806 -123.07365 218 ft 127 kts 275°
2026-05-08 03:17 49.18817 -123.08720 197 ft 129 kts 266°
2026-05-08 03:17 49.18850 -123.10101 163 ft 133 kts 269°
2026-05-08 03:17 49.18873 -123.11469 226 ft 126 kts 269°
2026-05-08 03:18 49.18954 -123.12810 239 ft 119 kts 271°
2026-05-08 03:18 49.18961 -123.14034 225 ft 112 kts 263°
2026-05-08 03:18 49.18903 -123.15176 196 ft 94 kts 269°
2026-05-08 03:18 49.18884 -123.15972 139 ft 53 kts 266°
2026-05-08 03:19 49.18872 -123.16283 82 ft 6 kts 265°
2026-05-08 03:19 49.18858 -123.16434 49 ft 15 kts 306°
2026-05-08 03:19 49.18861 -123.16517 44 ft 5 kts
2026-05-08 03:19 49.18876 -123.16515 13 ft 0 kts
2026-05-08 03:24 49.18856 -123.16520 15 ft 0 kts 12°
2026-05-08 03:31 49.18856 -123.16519 15 ft 0 kts 12°
2026-05-08 03:32 49.18969 -123.16468 14 ft 8 kts 38°